Location: Arbon
(43.0005°N, 0.7472°E)
Time: 11:37:35
(UTC+00:00)

OAO 3 Rocket - Pass Details

Date: 22 April 2026
Orbit: 612 x 660 km, 35.0° (Epoch: 14 May)

Event Time Altitude Azimuth Distance (km) Brightness Sun altitude
Rises 19:50:32 0° 258° (WSW) 2,887 7.3 -11.4°
Reaches altitude 10° 19:53:06 10° 247° (WSW) 1,988 6.2 -11.8°
Maximum altitude 19:57:02 28° 188° (S) 1,179 4.3 -12.4°
Enters shadow 19:59:36 17° 142° (SE) 1,580 4.6 -12.8°
